Wind_Speed
23 22 21 20 17 16 17 17 18 19 19 20 20 21 21 20 19 22 28 31 31 32 31 30 31 33 36 37 37 35 22 22
25 24 24 24 23 21 18 17 17 16 17 17 18 18 19 20 19 19 19 20 25 31 35 35 33 32 34 37 40 34 39 28
24 23 22 21 22 23 23 22 22 20 16 14 15 16 19 20 20 21 23 22 22 22 22 25 31 33 34 34 34 33 33 29
24 24 23 23 23 23 22 21 20 21 20 17 14 14 15 16 18 19 19 20 20 22 23 23 22 22 24 28 31 32 32 35
24 24 25 24 24 24 24 23 22 20 18 17 17 16 15 15 16 17 18 18 18 18 18 18 20 21 20 22 25 28 34 34
21 23 23 22 21 22 22 22 22 21 20 20 20 20 19 19 19 20 21 23 24 22 23 23 21 20 19 18 21 27 29 34
20 25 21 17 17 18 19 19 20 21 21 21 21 20 20 19 19 19 21 22 24 24 23 22 23 22 23 22 21 22 29 31
22 22 17 17 18 18 18 18 18 18 20 21 21 22 23 23 23 22 22 23 24 25 24 24 23 22 23 23 23 23 23 29
22 17 18 19 20 20 18 17 16 17 18 20 21 21 22 24 24 24 25 25 26 26 26 26 26 25 23 25 25 24 25 26
20 17 20 22 21 19 20 19 18 19 18 19 21 23 23 23 25 26 27 27 27 28 28 27 27 27 25 24 25 26 26 26
19 18 22 26 25 23 21 18 18 19 19 21 20 22 24 26 26 26 28 29 28 28 29 29 29 29 28 26 24 25 27 28
22 25 27 31 30 30 27 25 23 22 22 23 24 25 25 27 27 28 28 29 31 30 29 29 29 29 29 28 27 27 27 29
24 26 27 30 31 31 30 31 32 32 32 29 27 27 28 30 32 31 30 31 31 31 31 30 30 30 30 28 27 28 28 29
23 24 25 27 27 28 29 31 34 36 35 36 37 37 36 35 34 32 31 31 32 32 32 32 31 31 31 31 30 30 31 32
23 28 31 31 29 29 27 28 31 34 36 39 42 43 45 43 41 38 33 35 32 32 33 35 34 33 34 35 35 34 34 34
27 28 31 30 31 33 34 38 40 41 42 44 46 47 48 48 49 46 40 36 38 33 34 37 37 36 37 38 38 38 37 36
29 31 31 33 35 38 38 40 41 42 44 45 47 49 48 48 45 43 43 40 39 37 37 40 39 37 36 37 37 36 35 33
32 34 35 37 41 45 46 45 44 46 48 49 51 53 55 53 50 48 46 42 39 37 38 41 40 38 37 37 34 32 29 27
31 34 38 42 48 47 45 47 49 50 50 49 47 49 49 47 45 44 42 40 44 44 40 41 42 41 38 36 34 32 31 28
Wind_Direction
17 13 9 8 3 348 338 333 324 315 308 305 304 302 300 296 288 279 271 270 269 269 271 273 272 267 263 263 249 247 250 266
10 9 5 0 354 349 350 345 333 324 314 303 300 299 302 306 304 300 294 288 283 275 271 271 271 272 270 269 269 263 282 260
9 4 1 355 350 346 349 349 347 344 333 315 312 319 322 324 325 322 318 314 310 305 300 292 281 276 272 270 270 274 272 249
3 357 352 350 346 343 350 355 355 350 346 344 340 337 332 329 320 322 325 326 327 326 323 320 314 305 292 277 270 265 261 250
358 352 346 345 343 343 348 353 354 359 357 352 348 344 337 334 338 338 338 337 337 338 334 330 326 323 317 300 279 265 257 255
347 346 340 336 337 340 344 348 347 353 356 354 353 351 349 348 343 338 333 330 326 326 326 326 326 322 313 308 295 271 267 255
338 336 331 329 334 336 341 342 344 347 347 347 345 344 343 342 340 336 333 332 330 329 325 322 318 316 312 308 302 295 271 267
332 335 343 341 337 335 335 336 339 340 340 339 337 334 334 335 335 334 333 330 326 324 325 323 321 317 308 305 302 295 291 275
331 340 351 346 341 333 332 331 335 336 335 333 332 331 330 331 333 334 335 334 331 327 324 321 319 317 315 309 303 298 289 285
328 330 337 341 344 343 337 334 338 336 336 333 326 323 323 323 325 325 325 327 327 325 324 322 319 313 309 304 302 299 295 288
317 320 327 336 340 344 337 330 339 340 341 341 333 328 323 322 320 319 319 321 323 323 320 318 315 311 309 303 293 292 294 292
316 324 335 334 335 337 336 334 339 341 338 335 336 339 339 332 323 316 312 313 315 317 316 315 313 311 308 305 300 291 288 288
317 324 328 328 328 332 329 332 330 330 328 328 330 332 332 332 329 321 311 308 307 309 310 311 311 311 308 304 298 292 285 283
311 315 316 318 324 324 323 323 321 321 321 322 324 325 326 326 326 320 313 308 305 303 303 303 303 304 304 303 300 294 288 284
289 299 306 306 303 303 301 303 310 312 311 313 314 316 316 318 318 319 310 303 307 309 302 299 298 298 299 299 299 296 287 282
296 301 304 300 302 303 302 305 306 304 302 304 307 308 310 311 312 312 310 307 304 302 309 304 299 297 295 296 298 296 288 276
293 297 299 300 304 304 300 297 296 296 297 298 299 301 301 302 302 300 301 304 304 301 304 304 299 297 296 296 297 294 292 281
291 295 299 303 304 303 299 296 294 292 291 290 290 291 292 292 293 292 292 298 295 299 295 299 297 292 293 296 291 290 293 287
285 290 291 292 295 294 291 288 288 288 291 293 294 294 294 293 292 290 285 289 290 295 295 293 296 288 289 291 286 282 285 285
Height
3212 3210 3208 3208 3206 3203 3200 3197 3194 3191 3189 3186 3184 3182 3180 3180 3179 3178 3177 3177 3177 3177 3177 3176 3177 3177 3177 3174 3173 3174 3180 3182
3211 3209 3206 3204 3201 3199 3198 3196 3192 3189 3186 3184 3182 3180 3178 3176 3175 3174 3173 3172 3171 3170 3170 3170 3170 3170 3170 3169 3167 3167 3170 3174
3211 3209 3207 3205 3201 3198 3195 3191 3187 3184 3183 3181 3179 3177 3175 3173 3171 3170 3169 3168 3167 3166 3164 3163 3162 3162 3162 3162 3162 3161 3164 3166
3210 3208 3206 3204 3201 3198 3194 3191 3188 3184 3180 3178 3178 3176 3174 3172 3170 3168 3167 3165 3164 3162 3159 3158 3157 3156 3154 3154 3155 3156 3157 3158
3210 3207 3205 3203 3200 3196 3193 3190 3186 3184 3181 3178 3175 3173 3171 3169 3167 3164 3162 3161 3160 3158 3157 3155 3153 3151 3150 3148 3148 3149 3149 3151
3210 3208 3205 3202 3199 3195 3192 3189 3185 3181 3178 3175 3173 3170 3168 3166 3165 3162 3160 3158 3156 3155 3152 3151 3149 3148 3145 3143 3142 3141 3141 3142
3210 3207 3204 3200 3197 3194 3191 3188 3185 3181 3177 3174 3171 3169 3167 3166 3164 3162 3159 3155 3152 3150 3148 3146 3144 3142 3140 3139 3137 3136 3134 3134
3208 3204 3200 3197 3195 3192 3190 3187 3184 3180 3176 3173 3170 3167 3164 3161 3159 3157 3155 3152 3149 3146 3144 3142 3140 3137 3135 3133 3131 3130 3128 3127
3205 3202 3198 3196 3192 3190 3188 3185 3183 3179 3175 3171 3167 3164 3161 3158 3155 3153 3150 3148 3145 3141 3138 3136 3134 3132 3130 3127 3125 3124 3121 3119
3201 3199 3197 3194 3190 3187 3184 3182 3179 3176 3173 3169 3165 3162 3158 3155 3152 3149 3146 3143 3141 3137 3133 3130 3128 3126 3125 3123 3120 3118 3115 3114
3198 3196 3194 3191 3187 3184 3182 3179 3176 3172 3169 3167 3163 3159 3155 3152 3149 3146 3142 3139 3137 3134 3130 3127 3123 3120 3118 3116 3114 3112 3109 3107
3194 3192 3188 3186 3183 3180 3177 3174 3171 3169 3166 3164 3160 3156 3152 3149 3145 3141 3138 3134 3131 3129 3127 3123 3119 3115 3113 3110 3108 3106 3104 3101
3189 3187 3185 3182 3178 3176 3173 3170 3167 3164 3161 3158 3156 3153 3149 3145 3141 3136 3132 3129 3125 3122 3120 3117 3113 3109 3106 3103 3101 3097 3095 3094
3184 3182 3179 3177 3175 3172 3169 3166 3162 3159 3155 3151 3148 3145 3143 3140 3137 3132 3127 3123 3120 3116 3113 3111 3108 3104 3100 3097 3094 3092 3089 3086
3177 3176 3174 3172 3169 3166 3163 3160 3157 3154 3149 3145 3142 3139 3135 3132 3129 3127 3122 3117 3113 3110 3105 3102 3100 3098 3094 3090 3086 3084 3081 3078
3174 3172 3170 3167 3164 3161 3158 3154 3151 3148 3143 3138 3134 3130 3127 3123 3120 3118 3115 3111 3106 3102 3099 3094 3090 3088 3086 3081 3077 3073 3070 3068
3169 3166 3164 3161 3158 3154 3151 3147 3143 3139 3135 3130 3126 3121 3118 3114 3110 3107 3104 3102 3099 3094 3090 3086 3081 3078 3075 3072 3068 3064 3060 3057
3164 3161 3158 3154 3150 3146 3142 3139 3135 3130 3126 3121 3117 3112 3107 3103 3099 3096 3093 3091 3087 3084 3081 3076 3072 3069 3065 3062 3059 3055 3052 3049
3158 3155 3151 3146 3142 3137 3133 3129 3125 3120 3115 3111 3107 3101 3096 3092 3087 3084 3081 3079 3076 3072 3069 3066 3062 3059 3056 3053 3050 3047 3045 3042